NILESAT 201

Last updated on Sat Jul 05 2025 00:02:44 GMT+0000 (Coordinated Universal Time)

1 36830U 10037A 25185.07545007 -.00000045 00000+0 00000+0 0 9998 2 36830 0.0374 202.2286 0004845 282.2794 178.0000 1.00271290 54875
UTC large
Height (km)
Speed (km/s)
/
Latitude / Longitude
Inclination (degrees)
Orbital Period (minutes)
Azimuth
Elevation
Range (km)
Doppler Factor

Next 0 passes for location: London (51.5072 / 0.1276)

Sorry there are no passes over London.